Location: Vihti�l�
(61.3833°N, 23.0667°E)
Time: 05:27:18
(UTC+00:00)

Okean O Rocket - Pass Details

Date: 29 November 2020
Orbit: 622 x 645 km, 98.2° (Epoch: 22 January)

Event Time Altitude Azimuth Distance (km) Brightness Sun altitude
Rises 04:32:57 0° 20° (NNE) 2,958 5.1 -16.8°
Reaches altitude 10° 04:35:17 10° 28° (NNE) 2,047 4.4 -16.6°
Maximum altitude 04:39:28 38° 97° (E) 983 3.2 -16.1°
Drops below altitude 10° 04:43:38 10° 167° (SSE) 2,042 4.6 -15.6°
Sets 04:45:58 0° 175° (S) 2,949 5.3 -15.3°
